Theta_e
316 316 316 315 316 315 315 313 312 312 312 313 313 313 314 314 314 313 316 322 313 308 310 313 313 310 310 309 305 309 307 308 307 303 301 301 300 303 302 305 303 304 302 300 301 301 297 319 319 313 322 324 325 326
316 316 316 315 315 315 315 314 312 312 312 312 312 313 313 313 313 313 313 318 318 310 310 315 315 316 314 312 309 309 308 306 305 303 303 303 301 304 305 300 311 303 308 303 305 304 318 320 319 324 326 321 323 325
315 315 315 315 315 315 315 314 313 312 312 312 312 312 312 313 313 312 311 315 313 310 310 312 313 318 320 318 319 307 309 308 306 308 304 302 298 305 300 302 304 311 312 308 303 308 308 315 321 323 323 325 327 327
314 314 315 315 315 315 315 314 313 312 311 311 312 312 312 312 312 311 310 314 312 308 304 309 317 313 318 319 317 316 312 311 309 309 306 301 299 307 302 305 304 308 313 309 308 313 315 318 317 319 318 317 323 323
313 314 314 315 315 315 315 315 313 312 311 311 311 311 311 311 311 311 312 315 315 308 302 303 309 316 318 317 314 314 312 308 307 304 302 300 304 303 305 304 302 308 307 308 305 313 312 317 319 318 316 316 321 321
313 313 313 313 314 314 315 314 313 312 311 311 311 311 311 311 311 311 308 316 317 314 305 299 311 312 315 315 314 313 312 311 308 305 303 304 308 305 299 299 307 310 313 314 314 316 318 319 321 320 315 318 320 323
313 313 313 313 314 314 314 314 313 312 311 311 311 311 311 311 309 307 308 311 313 315 305 300 304 312 315 313 312 312 311 308 308 304 300 303 305 308 302 298 306 310 312 313 316 320 317 317 315 320 319 319 321 325
312 312 312 313 313 314 314 314 313 312 311 311 311 311 311 310 309 309 315 309 313 309 307 298 301 307 314 308 306 313 312 309 306 304 305 304 306 306 299 306 308 311 313 313 315 318 317 320 318 319 319 318 320 322
312 312 312 312 313 313 314 313 313 312 312 311 311 311 312 310 308 312 315 313 314 310 300 298 296 300 312 309 310 310 312 304 309 302 302 305 303 301 305 308 310 312 313 314 315 315 316 316 316 319 317 319 320 322
311 312 312 312 313 313 313 313 313 312 311 310 309 310 306 311 317 316 309 305 303 303 303 300 305 300 308 305 302 305 311 305 300 305 310 303 303 311 314 314 316 316 316 317 314 313 315 316 316 317 317 321 322 323
311 311 312 312 312 313 313 313 312 310 309 312 309 308 314 316 311 308 302 301 300 298 301 304 306 303 309 298 298 304 304 307 299 305 304 303 306 308 312 313 318 321 322 320 321 321 319 318 317 317 319 320 322 323
311 311 312 312 312 312 313 312 310 310 312 307 307 310 312 307 304 300 298 303 302 300 306 306 307 308 305 305 300 305 301 304 297 307 302 300 309 309 310 311 314 318 321 321 323 321 321 323 323 321 320 322 323 325
311 311 311 311 312 312 312 310 309 308 308 311 307 304 302 302 292 295 294 299 301 308 312 311 308 308 306 304 300 299 297 298 306 300 298 304 308 308 309 310 313 316 317 319 321 323 324 325 326 325 326 327 327 327
310 311 311 311 311 312 311 310 308 309 309 305 301 292 298 297 300 301 301 303 310 308 308 308 308 307 306 300 301 295 300 300 294 292 296 305 304 306 307 310 309 315 318 319 320 323 323 324 325 326 328 328 329 328
310 311 311 311 311 311 310 309 308 311 308 302 302 293 300 305 306 307 308 309 310 312 308 306 310 309 301 298 300 297 294 292 295 294 298 304 306 306 306 308 310 318 319 321 321 323 324 325 326 325 328 327 329 330
310 310 311 311 311 310 310 309 310 310 307 304 304 302 306 304 303 308 307 306 309 310 308 308 306 301 299 298 295 293 290 289 294 300 304 306 308 311 317 318 318 322 323 323 326 326 326 327 327 329 326 325 326 328
310 310 311 311 311 310 309 309 308 305 303 301 302 307 305 305 303 305 307 307 314 308 302 303 300 299 303 297 296 298 293 296 301 304 307 309 311 313 316 319 320 323 325 326 327 329 327 327 330 327 327 330 326 332
310 312 311 310 311 309 309 308 307 303 298 303 301 305 306 306 305 306 309 310 308 307 306 301 307 301 299 295 298 305 305 307 309 309 310 315 318 318 318 320 322 323 322 327 329 329 331 330 330 330 333 333 330 333
309 309 309 308 310 310 306 305 306 299 301 304 304 306 306 307 309 311 310 311 311 312 308 305 301 300 303 306 306 308 311 313 311 313 316 317 320 315 314 318 320 323 324 326 329 329 329 333 334 333 334 333 330 331
309 309 309 308 309 309 301 303 308 302 300 302 305 304 305 306 308 309 309 309 309 308 304 302 303 306 310 312 313 313 315 316 314 318 321 320 323 316 315 317 320 320 319 321 325 318 328 328 335 333 334 330 329 331
308 309 309 310 309 307 305 303 302 304 304 301 305 304 304 306 306 306 306 310 306 304 302 306 307 311 319 319 318 317 316 318 318 323 321 317 322 319 320 321 321 323 323 322 323 315 317 323 326 327 327 329 330 331
308 309 309 308 303 302 302 305 302 304 302 303 304 305 302 301 303 305 311 306 306 308 309 310 311 313 314 322 321 322 322 323 325 323 315 316 320 319 317 322 323 319 324 322 320 319 318 326 328 326 325 326 322 327
307 307 305 302 298 296 297 306 300 302 299 302 305 303 303 305 308 312 307 309 310 314 315 313 316 322 319 320 322 322 323 324 321 321 322 321 321 324 318 322 325 321 320 324 324 323 324 316 319 323 325 324 326 327
307 302 298 297 296 294 302 300 303 302 302 301 300 299 302 305 309 309 305 311 317 318 318 321 318 318 320 323 318 320 322 321 321 318 324 321 321 322 323 322 322 323 322 325 324 325 323 325 316 323 324 325 325 324
292 293 295 290 298 297 296 297 299 299 297 300 300 300 305 309 304 303 305 310 316 319 320 319 318 319 318 314 317 319 328 322 319 319 321 325 323 319 322 320 322 324 326 324 324 321 322 322 324 325 323 323 324 325
290 297 293 297 296 296 297 296 297 298 300 299 301 306 306 303 300 299 305 308 314 312 312 314 315 313 316 318 317 318 321 322 323 321 324 325 322 324 321 321 321 321 326 327 324 323 323 324 324 324 324 324 314 324
290 295 300 304 301 300 299 301 301 299 298 297 302 300 298 294 297 307 313 314 315 319 319 320 317 317 317 318 320 321 326 326 324 324 327 326 326 325 324 320 320 323 328 326 327 326 325 325 324 323 324 325 326 326
298 299 295 299 298 300 297 297 298 298 301 307 304 297 297 299 302 311 311 314 318 319 317 319 321 321 321 322 322 320 323 324 326 326 327 325 326 328 327 327 327 309 324 323 327 328 327 325 325 323 323 323 324 326
297 301 300 297 298 298 298 298 299 302 306 308 302 301 304 311 312 312 315 316 317 316 314 314 319 325 324 325 326 324 323 323 322 321 318 319 318 324 326 327 326 325 324 323 303 312 322 322 322 323 324 323 323 324
298 302 298 298 296 295 300 303 303 306 307 308 308 308 308 309 314 317 315 315 314 314 316 319 321 321 322 325 326 326 328 325 326 323 320 321 324 326 324 324 324 324 326 323 322 322 307 316 313 321 321 322 321 321
303 301 299 299 298 303 304 307 308 309 308 307 308 305 305 310 314 316 316 317 318 317 319 318 319 325 325 326 326 324 319 324 326 326 325 325 325 324 324 324 324 323 322 319 318 316 315 315 314 314 314 314 315 315
302 300 299 297 299 305 307 305 305 305 305 306 305 307 310 309 304 309 315 317 316 317 318 320 324 325 329 328 325 322 308 320 320 323 327 325 325 325 321 320 320 319 318 318 318 317 317 316 315 315 314 314 314 314
302 302 302 301 301 301 307 306 305 304 306 306 307 307 306 305 303 311 318 320 319 322 323 324 325 323 323 321 319 316 313 316 303 296 298 298 298 307 319 319 319 319 318 317 316 316 315 315 315 316 316 315 315 315
Wind_Speed
9 9 9 9 8 8 9 9 9 9 10 11 13 14 16 17 18 12 7 5 6 7 13 11 14 13 12 9 11 13 10 8 8 11 13 14 15 15 19 20 18 17 5 9 9 13 20 9 15 3 6 14 17 15
9 9 8 8 8 8 9 9 9 9 9 10 11 12 13 15 16 15 7 9 8 7 13 21 20 16 15 13 11 10 10 10 4 7 6 6 12 12 17 13 14 5 8 2 9 9 10 15 16 6 5 6 8 16
9 9 9 9 9 10 10 9 9 9 9 10 11 11 12 12 13 11 7 7 9 8 11 11 4 11 9 8 9 8 4 1 4 5 5 6 9 11 12 13 18 5 6 6 5 2 7 13 15 19 18 3 6 9
9 9 9 9 9 10 9 9 9 9 9 9 10 11 12 12 12 10 8 8 4 6 6 7 13 14 16 7 8 6 8 6 6 6 5 6 9 11 10 15 16 13 4 5 7 7 11 8 8 8 17 24 6 10
11 11 10 10 10 10 10 10 9 9 9 10 10 11 12 12 12 10 9 6 1 4 7 11 23 10 10 9 3 6 9 7 5 4 7 10 11 9 12 15 15 15 11 4 5 8 6 10 1 1 8 21 19 11
11 11 11 10 10 10 10 9 9 9 10 10 10 10 11 12 12 8 2 4 4 4 3 6 8 10 5 2 6 7 8 2 4 3 4 6 19 13 8 13 16 15 11 14 5 5 12 10 6 7 6 16 26 12
11 11 11 10 10 10 9 9 9 9 10 11 10 10 10 9 7 5 5 2 4 4 3 6 6 2 5 7 5 1 4 2 6 2 5 8 11 10 11 17 18 20 20 18 12 6 8 7 5 9 5 14 29 21
11 10 10 10 10 9 9 9 9 9 10 11 11 11 11 10 10 6 2 11 6 4 3 4 7 5 10 6 6 3 2 3 5 4 6 10 9 7 8 15 18 19 16 17 18 11 7 8 5 11 13 19 20 15
10 10 9 9 9 9 8 8 8 10 11 12 12 13 4 4 3 3 8 7 5 3 2 3 3 5 6 6 9 5 4 5 5 5 6 7 8 9 10 14 14 14 12 15 11 14 13 14 8 6 8 18 15 14
9 9 9 9 9 8 7 8 9 11 13 11 8 5 3 2 12 10 2 2 1 2 3 5 6 5 4 5 5 5 4 4 4 8 5 6 11 17 15 15 15 12 11 11 12 8 11 12 6 7 13 18 12 11
8 8 8 8 8 8 8 7 8 11 13 5 3 0 4 11 5 3 3 4 4 4 5 6 8 6 2 1 3 6 5 4 4 3 4 5 1 10 19 22 10 9 10 10 12 14 14 12 8 7 10 11 11 13
8 7 8 7 8 7 7 6 5 5 5 4 6 6 4 2 3 4 4 4 6 4 6 6 4 3 2 1 3 5 4 4 4 8 4 5 5 6 9 15 20 17 14 13 11 5 12 12 10 11 13 12 12 10
6 7 7 7 7 8 7 5 4 7 10 4 3 3 3 3 2 5 5 4 2 3 2 2 2 3 2 1 3 3 5 3 6 4 4 3 9 12 13 16 20 18 18 12 13 11 9 8 9 11 10 10 12 11
5 6 7 8 8 9 7 6 4 6 5 3 3 4 6 6 7 5 5 4 1 3 6 6 4 3 2 2 2 4 3 3 4 4 4 6 12 15 15 13 17 18 15 14 13 13 12 12 10 10 14 8 12 11
6 7 7 7 9 9 7 6 4 4 3 4 4 5 9 10 6 6 7 3 3 3 5 6 1 2 2 2 1 3 4 4 4 5 10 13 16 18 19 17 15 14 10 11 12 13 13 12 12 12 9 11 11 8
6 5 5 10 11 9 8 6 5 3 3 5 7 9 8 9 2 2 2 4 3 3 6 4 1 1 2 2 2 2 3 4 5 7 13 16 18 14 11 8 10 12 10 12 11 12 11 11 11 8 8 9 8 7
10 3 13 13 12 9 7 4 4 5 5 5 7 9 10 9 8 6 5 6 4 4 3 3 5 2 4 2 3 4 4 6 9 14 14 18 16 14 13 11 10 9 8 4 4 7 9 4 8 7 8 7 10 8
2 6 13 14 12 7 6 5 4 5 7 8 10 9 4 5 9 7 8 8 5 3 3 3 2 4 3 2 2 3 8 9 9 11 13 15 13 13 11 10 11 7 6 6 8 10 10 7 4 1 6 7 6 7
4 8 12 12 4 2 4 5 4 5 8 9 6 8 7 8 9 9 8 5 5 5 2 3 5 6 4 4 5 8 10 9 9 9 6 9 3 3 8 9 10 11 10 9 8 7 8 7 5 4 2 2 3 2
12 12 9 6 4 2 2 2 3 5 6 5 6 8 8 7 7 7 8 7 3 3 3 5 10 9 3 5 7 7 8 9 10 11 13 3 8 7 7 4 7 11 7 8 9 11 7 7 4 6 4 6 6 7
3 4 3 2 1 4 4 2 5 6 6 5 7 6 7 8 7 8 5 3 3 6 7 9 11 10 6 7 6 7 9 8 9 8 9 11 3 5 2 1 2 4 4 6 5 11 11 5 2 5 4 4 6 7
4 4 2 2 2 2 5 5 5 5 6 8 11 9 7 7 6 7 4 4 9 7 9 8 8 10 10 4 4 5 7 10 12 10 14 5 7 8 3 3 6 7 6 6 5 9 5 4 5 4 5 1 3 2
6 2 2 2 3 3 6 4 4 5 5 4 3 4 4 3 4 4 4 6 3 5 5 4 5 8 6 9 8 10 9 11 9 7 5 5 5 10 6 6 5 3 4 6 7 8 8 12 7 5 4 5 3 3
1 3 3 4 5 5 4 4 5 5 4 6 4 4 4 2 3 2 7 1 2 4 2 4 5 5 6 8 6 5 5 8 10 4 4 5 6 7 9 7 6 6 3 2 7 7 6 4 5 3 2 7 6 4
3 3 4 4 3 5 5 5 9 5 5 3 5 5 3 4 2 3 2 2 3 2 4 4 5 5 1 5 7 6 6 6 3 4 4 6 5 3 5 4 6 8 9 10 11 11 9 8 8 11 10 10 10 13
3 7 6 8 5 6 5 4 2 4 7 3 2 2 3 3 4 3 2 1 4 3 3 3 6 3 4 7 5 4 4 3 6 4 4 1 1 5 6 3 1 8 9 8 3 5 6 9 11 12 12 13 13 10
4 7 7 5 4 5 5 5 7 6 4 3 1 2 1 2 3 1 2 2 2 3 4 3 3 9 5 5 6 5 1 3 7 2 4 1 6 6 3 7 9 8 10 9 6 7 10 8 7 9 8 9 11 11
5 4 7 8 6 4 9 7 6 4 3 2 4 4 4 5 0 2 4 6 3 3 4 6 4 7 6 4 4 4 6 3 8 2 8 8 8 8 9 7 7 7 10 9 6 10 9 7 8 9 11 10 9 10
6 6 6 8 5 3 5 9 9 6 1 4 4 3 4 1 4 6 3 5 6 7 8 8 6 7 6 6 5 6 1 4 4 7 6 7 2 2 6 4 5 6 8 10 12 10 12 12 10 9 8 9 10 10
9 7 6 4 9 7 9 6 7 8 8 8 8 7 7 7 1 7 7 8 8 9 9 5 7 7 5 4 6 2 6 2 5 7 5 3 4 4 8 4 7 2 2 5 6 6 2 4 8 6 7 7 7 8
4 4 8 8 11 11 11 11 10 10 11 11 9 8 8 5 6 6 4 4 4 5 6 7 6 5 5 5 2 5 1 6 8 9 7 4 4 7 9 7 5 4 4 7 9 11 12 12 11 13 14 15 11 13
8 9 7 8 9 9 8 7 8 9 9 8 4 2 4 6 3 3 2 2 4 6 7 6 5 2 3 4 6 6 12 9 7 5 6 7 10 8 9 7 7 6 9 11 15 13 12 15 13 13 11 11 14 12
7 8 8 8 7 4 4 5 4 4 5 7 3 2 1 2 4 2 2 2 5 3 1 2 3 1 7 12 11 9 12 12 14 14 17 20 21 7 5 8 8 12 13 10 11 11 10 9 9 8 9 9 11 11
Wind_Direction
286 286 286 289 289 298 303 312 320 326 335 343 347 351 351 351 351 345 311 39 347 305 292 310 341 317 310 297 297 326 326 24 298 273 270 278 274 274 274 271 271 271 171 197 266 261 235 337 318 340 19 18 3 335
290 284 279 279 276 282 285 292 305 311 322 329 333 339 345 346 348 339 302 360 352 268 290 305 286 266 269 271 287 294 290 325 322 307 342 326 319 308 300 301 298 34 343 279 194 183 300 351 338 46 97 84 3 353
289 289 282 274 276 274 277 287 294 304 311 317 321 327 332 336 341 344 314 324 319 295 289 242 283 181 230 265 284 287 274 321 266 46 315 288 271 294 286 292 319 11 81 290 42 136 296 297 29 359 349 32 106 252
278 283 281 273 270 270 270 275 282 294 303 310 315 320 324 327 325 320 303 312 327 300 287 329 4 336 323 270 255 250 299 171 208 254 260 266 278 289 296 309 292 304 148 184 216 271 273 147 84 15 349 326 332 311
265 269 273 273 266 266 264 266 276 288 296 302 310 315 318 321 319 296 270 286 223 316 317 309 303 278 232 216 296 212 239 258 246 248 259 266 272 279 285 289 281 284 290 292 301 111 35 309 200 201 324 297 311 321
268 267 264 263 258 258 258 263 271 281 289 295 301 306 311 319 324 291 127 51 29 2 295 297 357 272 257 178 234 256 274 279 207 223 255 256 258 262 268 269 273 271 294 335 321 133 180 237 260 242 275 305 287 302
267 264 261 258 251 248 250 256 263 275 284 290 295 298 300 301 294 289 1 1 313 296 267 281 291 52 254 267 255 250 81 220 232 201 236 250 264 272 261 261 271 279 293 296 296 212 229 219 232 231 234 286 286 289
265 262 259 256 243 241 246 252 263 276 284 288 290 290 293 289 270 261 359 201 268 268 287 294 281 274 3 315 315 267 219 181 193 239 247 251 261 223 254 253 258 262 261 268 279 260 262 286 149 183 213 252 269 292
261 263 257 253 233 231 234 245 264 275 278 284 291 291 271 220 229 82 104 146 213 298 282 228 273 316 354 322 298 243 194 224 216 215 236 257 238 227 242 254 263 269 281 281 261 253 254 250 235 227 228 263 267 277
258 260 255 237 221 222 226 247 267 277 280 293 270 211 215 139 124 142 123 181 162 224 278 258 246 267 294 7 299 309 200 247 229 224 228 222 254 255 256 260 276 272 249 263 292 286 289 243 226 224 224 246 261 277
257 251 238 221 216 222 228 238 268 304 273 209 239 195 91 153 228 206 223 225 161 226 211 235 242 258 15 176 286 277 304 246 261 36 283 256 307 27 12 346 346 331 304 287 300 288 262 281 275 259 249 250 261 260
253 236 224 209 210 216 223 232 274 270 14 358 300 265 259 263 228 255 233 219 220 253 174 244 208 221 95 163 270 273 281 284 277 345 284 265 76 59 25 314 335 327 328 304 285 338 320 305 290 221 243 248 254 251
244 230 217 208 205 206 204 210 253 296 285 224 249 268 230 208 268 237 211 208 264 242 219 245 256 141 134 152 254 275 281 285 304 246 257 322 343 340 336 324 312 298 296 295 298 283 248 293 300 270 248 231 245 250
233 224 211 201 193 190 186 194 237 271 268 259 214 251 230 204 234 201 243 296 335 290 327 321 78 172 150 188 247 258 281 307 279 275 276 332 309 297 295 285 295 286 275 283 282 272 266 260 254 264 263 229 233 238
226 216 200 197 184 174 177 192 230 242 270 266 249 245 226 243 285 349 324 340 269 5 325 314 169 116 131 268 235 315 284 299 302 279 277 291 294 296 289 282 278 281 264 259 265 260 259 250 240 246 237 227 224 217
200 171 202 165 167 165 175 197 213 253 252 248 242 257 276 273 298 311 288 295 268 302 289 267 287 183 184 255 238 242 308 263 266 272 289 300 309 314 331 315 264 274 274 265 275 275 253 240 223 212 211 212 206 210
175 248 162 161 160 163 181 237 209 220 237 245 243 234 247 289 315 322 338 294 229 258 276 307 281 111 144 237 247 156 224 235 271 287 298 298 309 325 330 326 338 351 339 295 318 348 226 197 150 175 203 197 222 185
230 140 147 151 163 166 178 219 246 222 243 249 255 267 309 306 281 279 274 274 304 313 314 267 272 262 168 226 268 226 243 256 256 262 281 293 297 341 333 330 336 350 341 4 32 31 36 57 86 64 196 179 210 200
145 151 169 177 216 255 199 201 249 267 237 269 283 269 274 284 264 261 273 294 312 269 240 248 254 249 190 195 222 260 277 282 307 316 272 246 359 274 299 326 330 13 9 20 39 61 69 56 36 56 3 297 32 315
92 113 128 143 234 262 263 200 240 269 280 300 286 265 265 269 285 271 242 239 229 270 239 235 246 266 223 201 208 248 281 305 319 328 329 353 140 197 261 27 345 338 3 0 18 11 52 69 58 65 17 56 14 60
137 112 104 273 224 282 286 252 225 252 280 255 278 291 277 271 280 260 277 259 234 239 242 255 270 284 297 179 195 243 286 294 305 306 302 313 353 157 166 94 253 294 335 335 21 32 6 346 8 56 47 43 48 47
93 158 151 142 217 279 259 233 258 298 270 268 277 269 272 270 263 262 225 222 244 240 240 251 265 290 293 248 251 268 313 303 292 299 308 281 312 134 174 194 184 221 228 208 207 106 292 333 343 193 125 58 347 6
125 146 130 156 218 226 257 239 245 239 252 258 257 268 244 227 214 189 237 218 211 227 248 202 249 281 297 295 289 279 278 283 288 281 315 350 356 343 156 182 183 203 277 234 216 174 163 148 235 276 138 123 97 6
106 167 193 195 206 252 234 209 232 247 248 245 277 274 272 282 334 255 267 59 2 316 261 299 297 289 308 265 269 254 220 234 267 310 345 354 344 352 20 360 17 357 155 280 35 44 33 32 331 25 79 190 169 186
110 215 186 225 217 267 255 230 232 235 268 284 278 279 19 320 292 275 360 32 353 325 343 316 259 255 144 303 275 263 241 326 3 26 336 317 346 9 31 21 3 356 32 40 43 49 44 39 30 28 36 26 56 63
217 196 214 198 194 230 224 257 246 240 266 280 271 0 342 323 284 285 119 275 270 243 236 281 308 326 322 332 328 350 345 293 297 61 299 29 106 60 15 23 288 35 32 23 11 73 53 48 53 55 32 26 36 30
234 228 208 215 225 245 281 270 265 258 236 253 129 64 339 257 255 246 214 268 298 252 312 320 337 306 305 326 318 287 302 346 292 258 270 101 127 158 111 43 35 14 23 32 43 41 64 56 76 81 59 52 43 43
254 277 236 208 227 255 265 277 282 257 232 162 136 199 227 224 74 335 277 276 283 325 309 313 330 332 332 324 277 267 258 290 278 60 53 32 28 39 73 79 72 39 74 33 37 61 72 68 76 74 66 63 59 58
235 230 229 235 220 243 241 243 242 255 260 169 200 255 269 222 228 246 282 331 318 311 319 306 319 305 284 283 305 272 329 259 223 117 142 107 132 241 82 31 80 75 86 77 50 46 45 56 54 57 64 82 80 73
247 215 223 232 226 227 239 240 266 265 278 272 258 266 269 278 85 39 346 317 306 296 303 317 277 263 285 280 278 271 318 234 115 127 101 102 115 92 118 134 106 26 58 108 107 124 205 180 131 124 121 87 64 76
269 220 226 237 250 245 241 257 254 251 252 264 272 278 294 354 336 17 5 355 341 310 287 272 275 273 267 251 146 88 280 282 100 109 129 129 132 79 75 109 127 127 142 88 89 79 80 79 75 69 62 64 77 81
225 229 249 251 263 261 272 288 275 267 269 270 274 320 47 7 322 311 305 308 296 289 251 250 260 150 171 175 123 82 54 59 41 77 149 155 145 126 126 135 119 132 120 96 72 57 60 75 67 68 66 75 78 62
217 235 250 261 267 312 355 311 299 294 263 246 66 76 181 207 256 275 304 236 269 301 335 137 117 144 69 87 89 87 84 79 71 66 62 58 53 40 110 131 109 88 81 79 90 97 90 81 73 90 97 75 92 115